Apalachee Bay - Ochlockonee Bay Weather Center

Moon Phase Calendar



Online Cameras

 


      

Current Conditions in Wakulla
11/27/2021 1:27:35 AM

38°F
Feels Like 30
Clouds
Humidity
47%
Pressure
30.09"
Wind
11.1 mph (N)
Dew Point
21°F
UV Index
0/10 (Low)
Visibility
6 mi

Hourly Forecast

Date & Time Sat, Nov 27
1:00 AM
Sat, Nov 27
2:00 AM
Sat, Nov 27
3:00 AM
Sat, Nov 27
4:00 AM
Sat, Nov 27
5:00 AM
Sat, Nov 27
6:00 AM
Sat, Nov 27
7:00 AM
Sat, Nov 27
8:00 AM
Sat, Nov 27
9:00 AM
Sat, Nov 27
10:00 AM
Sat, Nov 27
11:00 AM
Sat, Nov 27
12:00 PM
Sat, Nov 27
1:00 PM
Sat, Nov 27
2:00 PM
Sat, Nov 27
3:00 PM
Sat, Nov 27
4:00 PM
Sat, Nov 27
5:00 PM
Sat, Nov 27
6:00 PM
Sat, Nov 27
7:00 PM
Sat, Nov 27
8:00 PM
Sat, Nov 27
9:00 PM
Sat, Nov 27
10:00 PM
Sat, Nov 27
11:00 PM
Sun, Nov 28
12:00 AM
Sun, Nov 28
1:00 AM
Sun, Nov 28
2:00 AM
Sun, Nov 28
3:00 AM
Sun, Nov 28
4:00 AM
Sun, Nov 28
5:00 AM
Sun, Nov 28
6:00 AM
Sun, Nov 28
7:00 AM
Sun, Nov 28
8:00 AM
Sun, Nov 28
9:00 AM
Sun, Nov 28
10:00 AM
Sun, Nov 28
11:00 AM
Sun, Nov 28
12:00 PM
Sun, Nov 28
1:00 PM
Sun, Nov 28
2:00 PM
Sun, Nov 28
3:00 PM
Sun, Nov 28
4:00 PM
Sun, Nov 28
5:00 PM
Sun, Nov 28
6:00 PM
Sun, Nov 28
7:00 PM
Sun, Nov 28
8:00 PM
Sun, Nov 28
9:00 PM
Sun, Nov 28
10:00 PM
Sun, Nov 28
11:00 PM
Mon, Nov 29
12:00 AM
Condition
Clouds

Clouds

Clouds

Clouds

Clouds

Clouds

Clouds

Clouds

Clouds

Clouds

Clouds

Clouds

Clouds

Clouds

Clouds

Clouds

Clouds

Clouds

Clouds

Clouds

Clouds

Clouds

Clouds

Clouds

Clouds

Clouds

Clouds

Clouds

Clouds

Clouds

Clouds

Clouds

Clouds

Clouds

Clouds

Clouds

Clouds

Clouds

Clouds

Clouds

Rain

Rain

Rain

Clouds

Clouds

Clouds

Clouds

Clouds
Temperature 38°F40°F42°F44°F46°F48°F48°F48°F49°F52°F55°F57°F60°F61°F61°F61°F60°F59°F58°F57°F56°F56°F55°F55°F54°F54°F54°F54°F53°F53°F52°F53°F54°F55°F56°F56°F56°F56°F57°F56°F53°F51°F50°F50°F51°F52°F52°F52°F
Feels Like 30°F33°F36°F39°F42°F44°F43°F44°F46°F49°F51°F54°F56°F58°F58°F58°F57°F56°F55°F54°F54°F53°F52°F52°F51°F51°F51°F51°F50°F50°F49°F50°F51°F52°F53°F53°F54°F54°F54°F53°F51°F49°F47°F49°F50°F50°F51°F51°F
Cloudiness 14%23%24%42%59%76%78%99%99%99%99%100%100%100%100%100%100%100%100%95%92%95%96%97%96%99%84%89%91%92%92%100%100%100%100%100%100%100%100%100%100%100%100%100%100%100%100%100%
Visibility 6 mi6 mi6 mi6 mi6 mi6 mi6 mi6 mi6 mi6 mi6 mi6 mi6 mi6 mi6 mi6 mi6 mi6 mi6 mi6 mi6 mi6 mi6 mi6 mi6 mi6 mi6 mi6 mi6 mi6 mi6 mi6 mi6 mi6 mi6 mi6 mi6 mi6 mi6 mi6 mi6 mi6 mi6 mi6 mi6 mi6 mi6 mi6 mi
Precipitation 0%0%0%0%0%0%0%0%0%0%0%0%0%0%0%0%0%0%0%0%0%0%0%0%0%0%0%0%0%0%0%0%0%0%0%0%0%1%0%0%30%51%57%20%8%0%0%0%
Humidity 47%48%48%48%48%48%49%47%42%37%31%27%24%22%23%25%30%32%34%37%39%40%41%41%41%41%42%42%44%44%45%44%43%42%41%40%41%42%43%49%60%76%85%85%83%82%82%82%
Dew Point 21°F23°F25°F26°F28°F29°F29°F29°F27°F26°F25°F23°F23°F22°F24°F26°F29°F29°F30°F31°F32°F32°F32°F31°F31°F31°F31°F31°F32°F31°F32°F32°F32°F32°F33°F32°F33°F33°F34°F37°F40°F44°F45°F46°F46°F46°F47°F47°F
Pressure 30.09"30.09"30.09"30.09"30.12"30.12"30.15"30.15"30.18"30.18"30.18"30.15"30.12"30.09"30.09"30.09"30.09"30.09"30.09"30.12"30.12"30.12"30.12"30.12"30.12"30.09"30.09"30.09"30.09"30.09"30.12"30.12"30.15"30.15"30.15"30.12"30.09"30.06"30.06"30.06"30.09"30.09"30.09"30.12"30.09"30.09"30.09"30.09"
Wind Speed 11.1 mph10.8 mph9.8 mph8.9 mph8.8 mph9.6 mph10.2 mph9.2 mph7.5 mph6.6 mph6.1 mph5.2 mph4.3 mph2.2 mph1.6 mph0.5 mph1.1 mph1.7 mph0.6 mph2.8 mph4.3 mph3.6 mph4.1 mph3.8 mph4.1 mph3.4 mph4.5 mph5.2 mph6.4 mph6 mph6.7 mph7 mph5.7 mph6.8 mph7.3 mph6.4 mph6.7 mph6.5 mph7.7 mph9.9 mph9.6 mph11.2 mph7 mph7.3 mph6.1 mph9 mph10.3 mph10.9 mph
Wind
Direction
354°
N
357°
N

N

N

N
359°
N

N
14°
NNE
11°
N

N

N

N
357°
N
357°
N
287°
WNW
268°
W
274°
W
341°
NNW
312°
NW
323°
NW
342°
NNW
358°
N
354°
N
341°
NNW
332°
NNW
325°
NW
321°
NW
331°
NNW
333°
NNW
329°
NNW
322°
NW
325°
NW
310°
NW
317°
NW
324°
NW
315°
NW
302°
WNW
315°
NW
301°
WNW
314°
NW
317°
NW
319°
NW
317°
NW
301°
WNW
283°
WNW
294°
WNW
297°
WNW
304°
NW

Daily Forecast

Date High Low Precip. Humidity
Today
Nov 27

Clouds
61 °F
38 °F
0%
27%
Sunday
Nov 28

Rain
57 °F
50 °F
57%
40%
Monday
Nov 29

Clear
63 °F
48 °F
0%
34%
Tuesday
Nov 30

Clear
61 °F
50 °F
0%
34%
Wednesday
Dec 1

Clouds
64 °F
54 °F
0%
39%
Thursday
Dec 2

Clouds
67 °F
56 °F
0%
41%
Friday
Dec 3

Clouds
68 °F
57 °F
0%
52%
Saturday
Dec 4

Clouds
68 °F
58 °F
0%
64%
Sunday
Dec 5

Clouds
63 °F
50 °F
0%
29%
Monday
Dec 6

Rain
61 °F
54 °F
100%
88%
Tuesday
Dec 7

Clear
60 °F
46 °F
0%
33%
Wednesday
Dec 8

Clouds
67 °F
60 °F
0%
88%
Thursday
Dec 9

Rain
70 °F
63 °F
100%
91%
Friday
Dec 10

Rain
67 °F
59 °F
97%
88%
Saturday
Dec 11

Rain
69 °F
63 °F
79%
91%
Sunday
Dec 12

Clouds
65 °F
57 °F
0%
80%

Temperature 8-14 Day Outlook



Precipitation 8-14 Day Outlook




Quick Links
Apalachee Bay - Ochlockonee Bay News
Apalachee Bay - Ochlockonee Bay Photos
Apalachee Bay - Ochlockonee Bay Videos




About Us
Contact Us
Site Map
Search Site
Advertise With Us
   
Apalachee.USGulf.info
THE APALACHEE BAY - OCHLOCKONEE BAY WEBSITE

Copyright 2021, Coastal Town
Privacy    |    Legal